カタログに戻る

FENGYUN 1C DEB

運用中SSO
NORAD 31735·DEBRIS·🇨🇳 China

打ち上げ May 10, 1999 から Taiyuan Satellite Launch Center

Loading…

次のパス (今後24時間)

TLE

最新Source: Space-Track

元期: Sep 14, 2026, 18:04 UTC

1 31735U 99025CEJ 26257.75283131  .00001900  00000-0  55803-3 0  9990
2 31735  98.5911   8.1907 0059467 173.9389 186.2534 14.43933042  6390

AllMySatでFENGYUN 1C DEBをリアルタイム追跡

Download on the App Store